This demonstration page uses our WeatherBlox Daily Observations layout. Learn more.

Left ArrowRight Arrow

41.86663, -103.66717

Hourly Observations for September 12, 2015

Temp ( °F °C ) Dew Point ( °F °C ) Humidity (%) Winds ( mph kmh ) Pressure ( in mb ) Visibility ( mi km ) Precip ( " mm )
12:53 am 00:53 Clear 54 12.2 46 7.8 75 75 NE 12 19 30.08 1019 10 16.0934 0 0
1:53 am 01:53 Clear 52 11.1 46 7.8 80 80 NE 10 17 30.08 1019 10 16.0934 0 0
2:53 am 02:53 Clear 50 10 45 7.2 83 83 NE 10 17 30.06 1018 10 16.0934 0 0
3:53 am 03:53 Clear 48 8.9 44 6.7 86 86 NNW 5 7 30.05 1018 10 16.0934 0 0
4:53 am 04:53 Clear 48 8.9 44 6.7 86 86 undefined N/A 30.05 1018 10 16.0934 0 0
5:53 am 05:53 Clear 47 8.3 44 6.7 90 90 N 3 6 30.05 1018 10 16.0934 0 0
6:53 am 06:53 Sunny 45 7.2 42 5.6 90 90 NW 12 19 30.07 1018 10 16.0934 0 0
7:53 am 07:53 Sunny 52 11.1 46 7.8 80 80 NW 16 26 30.09 1019 10 16.0934 0 0
8:53 am 08:53 Sunny 60 15.6 48 8.9 65 65 NW 21 33 30.07 1018 10 16.0934 0 0
9:53 am 09:53 Sunny 64 17.8 48 8.9 56 56 NW 17 28 30.07 1018 10 16.0934 0 0
10:53 am 10:53 Sunny 70 21.1 48 8.9 46 46 NW 16 26 30.05 1018 10 16.0934 0 0
11:53 am 11:53 Sunny 76 24.4 48 8.9 37 37 NW 12 19 30.02 1017 10 16.0934 0 0
12:53 pm 12:53 Sunny 80 26.7 42 5.6 26 26 WNW 9 15 29.98 1015 10 16.0934 0 0
1:53 pm 13:53 Sunny 83 28.3 41 5 23 23 WNW 16 26 29.95 1014 10 16.0934 0 0
2:53 pm 14:53 Sunny 82 27.8 40 4.4 22 22 WNW 10 17 29.93 1014 10 16.0934 0 0
3:53 pm 15:53 Sunny 85 29.4 41 5 21 21 NW 15 24 29.91 1013 10 16.0934 0 0
4:53 pm 16:53 Sunny 84 28.9 42 5.6 23 23 SE 8 13 29.89 1012 10 16.0934 0 0
5:53 pm 17:53 Sunny 82 27.8 43 6.1 25 25 SE 8 13 29.88 1012 10 16.0934 0 0
6:53 pm 18:53 Sunny 75 23.9 48 8.9 39 39 ENE 8 13 29.9 1013 10 16.0934 0 0
7:53 pm 19:53 Clear 65 18.3 51 10.6 61 61 E 10 17 29.91 1013 10 16.0934 0 0
8:53 pm 20:53 Clear 63 17.2 49 9.4 60 60 NE 8 13 29.93 1013 10 16.0934 0 0
9:53 pm 21:53 Clear 61 16.1 48 8.9 63 63 ENE 9 15 29.92 1013 10 16.0934 0 0
10:53 pm 22:53 Clear 59 15 47 8.3 64 64 ENE 9 15 29.9 1013 10 16.0934 0 0
11:53 pm 23:53 Clear 57 13.9 46 7.8 67 67 ENE 12 19 29.87 1012 10 16.0934 0 0

Powered by AerisWeather